Weather History for KAEG - July, 2013

Change the Weather History Date:

Friday, July 5, 2013

  Actual Average Record
Temperature  
Mean Temperature 78 °F -  
Max Temperature 93 °F - - ()
Min Temperature 64 °F - - ()
Cooling Degree Days 14    
Growing Degree Days 28 (Base 50)    
Moisture  
Dew Point 49 °F    
Average Humidity 47    
Maximum Humidity 83    
Minimum Humidity 15    
Precipitation  
Precipitation 0.00 in - - ()
Sea Level Pressure  
Sea Level Pressure 30.08 in    
Wind  
Wind Speed 10 mph (South)    
Max Wind Speed 36 mph    
Max Gust Speed 38 mph    
Visibility 10 miles    
Events      
T = Trace of Precipitation, MM = Missing Value Source: NWS Daily Summary

Daily Weather History Graph

Daily Weather History Graph

Search for Another Location

Airport or City:

Trip Planner

Search our weather history database for the weather conditions in past years. The results will help you decide how hot, cold, wet, or windy it might be!

Date:

Astronomy

Jul. 05, 2013 Rise Set
Actual Time 5:58 AM MDT 8:24 PM MDT
Civil Twilight 5:29 AM MDT 8:54 PM MDT
Nautical Twilight 4:52 AM MDT 9:30 PM MDT
Astronomical Twilight 4:12 AM MDT 10:10 PM MDT
Moon 3:57 AM MDT (7/5) 6:24 PM MDT (7/5)
Length of Visible Light 15h 25m
Length of Day
14h 26m
Waning Crescent, 6% of the Moon is Illuminated
Jul 5
Waning Crescent
Jul 8
New
Jul 15
First Quarter
Jul 22
Full
Jul 29
Last Quarter

Hourly Weather History & Observations

Time (MDT) Temp. Dew Point Humidity Pressure Visibility Wind Dir Wind Speed Gust Speed Precip Events Conditions
12:15 AM 69.8 °F 50.0 °F 49% 30.10 in 10.0 mi SE 15.0 mph - N/A   Unknown
12:35 AM 68.0 °F 51.8 °F 56% 30.11 in 10.0 mi SSE 20.7 mph - N/A   Unknown
12:55 AM 68.0 °F 51.8 °F 56% 30.11 in 10.0 mi South 13.8 mph - N/A   Unknown
1:15 AM 68.0 °F 48.2 °F 49% 30.11 in 10.0 mi South 15.0 mph - N/A   Unknown
1:35 AM 68.0 °F 46.4 °F 46% 30.11 in 10.0 mi SSE 11.5 mph - N/A   Unknown
1:55 AM 68.0 °F 46.4 °F 46% 30.11 in 10.0 mi SSW 8.1 mph - N/A   Unknown
2:15 AM 68.0 °F 46.4 °F 46% 30.09 in 10.0 mi SSW 9.2 mph - N/A   Unknown
2:35 AM 68.0 °F 46.4 °F 46% 30.08 in 10.0 mi SSW 10.4 mph - N/A   Unknown
2:55 AM 69.8 °F 46.4 °F 43% 30.07 in 10.0 mi South 10.4 mph - N/A   Unknown
3:15 AM 69.8 °F 44.6 °F 40% 30.07 in 10.0 mi SSW 9.2 mph - N/A   Unknown
3:35 AM 69.8 °F 46.4 °F 43% 30.08 in 10.0 mi SSE 3.5 mph - N/A   Unknown
3:55 AM 69.8 °F 48.2 °F 46% 30.08 in 10.0 mi WSW 8.1 mph - N/A   Unknown
4:15 AM 69.8 °F 48.2 °F 46% 30.08 in 10.0 mi WSW 9.2 mph - N/A   Unknown
4:35 AM 68.0 °F 48.2 °F 49% 30.08 in 10.0 mi SSW 5.8 mph - N/A   Unknown
4:55 AM 66.2 °F 48.2 °F 52% 30.08 in 10.0 mi Calm Calm - N/A   Unknown
5:15 AM 66.2 °F 48.2 °F 52% 30.08 in 10.0 mi Calm Calm - N/A   Unknown
5:35 AM 66.2 °F 48.2 °F 52% 30.08 in 10.0 mi Calm Calm - N/A   Unknown
5:50 AM 66.2 °F 48.2 °F 52% 30.08 in 10.0 mi Calm Calm - N/A   Mostly Cloudy
6:50 AM 64.4 °F 48.2 °F 56% 30.08 in 10.0 mi Calm Calm - N/A   Mostly Cloudy
7:50 AM 71.6 °F 46.4 °F 41% 30.10 in 10.0 mi Calm Calm - N/A   Mostly Cloudy
8:50 AM 71.6 °F 46.4 °F 41% 30.11 in 10.0 mi SE 4.6 mph - N/A   Scattered Clouds
9:50 AM 75.2 °F 46.4 °F 36% 30.11 in 10.0 mi Calm Calm - N/A   Scattered Clouds
11:50 AM 82.4 °F 46.4 °F 28% 30.08 in 10.0 mi Variable 5.8 mph - N/A   Scattered Clouds
12:50 PM 86.0 °F 46.4 °F 25% 30.06 in 10.0 mi Variable 6.9 mph - N/A   Scattered Clouds
1:50 PM 86.0 °F 46.4 °F 25% 30.04 in 10.0 mi Variable 6.9 mph - N/A   Scattered Clouds
2:50 PM 89.6 °F 44.6 °F 21% 30.00 in 10.0 mi WSW 4.6 mph - N/A   Mostly Cloudy
3:21 PM 84.2 °F 44.6 °F 25% 30.00 in 5.0 mi WSW 35.7 mph 38.0 mph N/A   Widespread Dust
3:50 PM 82.4 °F 44.6 °F 26% 30.00 in 10.0 mi SW 16.1 mph 29.9 mph N/A   Mostly Cloudy
4:50 PM 84.2 °F 44.6 °F 25% 29.97 in 10.0 mi SE 10.4 mph - N/A   Mostly Cloudy
5:50 PM 93.2 °F 39.2 °F 15% 29.96 in 10.0 mi South 8.1 mph - N/A   Mostly Cloudy
10:15 PM 64.4 °F 59.0 °F 83% 30.13 in 10.0 mi NE 8.1 mph - N/A   Unknown
10:35 PM 66.2 °F 57.2 °F 73% 30.13 in 10.0 mi East 5.8 mph - N/A   Unknown
10:55 PM 66.2 °F 57.2 °F 73% 30.13 in 10.0 mi East 5.8 mph - N/A   Unknown
11:15 PM 66.2 °F 57.2 °F 73% 30.13 in 10.0 mi SSE 6.9 mph - N/A   Unknown
11:35 PM 66.2 °F 57.2 °F 73% 30.13 in 10.0 mi WSW 3.5 mph - N/A   Unknown
11:55 PM 66.2 °F 57.2 °F 73% 30.14 in 10.0 mi WSW 9.2 mph - N/A   Unknown